Weather History for Madisonville, KY

Change the Weather History Date:

Monday, May 20, 2013

  Actual Average (KOWB) Record (KOWB)
Temperature  
Mean Temperature 78 °F -  
Max Temperature 87 °F 78 °F 92 °F (1962)
Min Temperature 70 °F 56 °F 41 °F (1986)
Cooling Degree Days 13    
Growing Degree Days 28 (Base 50)    
Moisture  
Dew Point 71 °F    
Average Humidity 76    
Maximum Humidity 96    
Minimum Humidity 57    
Precipitation  
Precipitation 0.00 in - - ()
Sea Level Pressure  
Sea Level Pressure 29.93 in    
Wind  
Wind Speed 8 mph (SSW)    
Max Wind Speed 14 mph    
Max Gust Speed 21 mph    
Visibility 9 miles    
Events      
Averages and records for this station are not official NWS values.
T = Trace of Precipitation, MM = Missing Value Source: NWS Daily Summary

Daily Weather History Graph

Daily Weather History Graph

Search for Another Location

Airport:

Trip Planner

Search our weather history database for the weather conditions in past years. The results will help you decide how hot, cold, wet, or windy it might be!

Date:

Astronomy

May. 20, 2013 Rise Set
Actual Time 5:36 AM CDT 7:56 PM CDT
Civil Twilight 5:07 AM CDT 8:25 PM CDT
Nautical Twilight 4:30 AM CDT 9:02 PM CDT
Astronomical Twilight 3:50 AM CDT 9:42 PM CDT
Moon 3:08 PM CDT (5/20) 2:25 AM CDT (5/20)
Length of Visible Light 15h 18m
Length of Day
14h 19m
Waxing Gibbous, 75% of the Moon is Illuminated
May 20
Waxing Gibbous
May 24
Full
May 31
Last Quarter
Jun 8
New
Jun 16
First Quarter

Hourly Weather History & Observations

Time (CDT) Temp. Heat Index Dew Point Humidity Pressure Visibility Wind Dir Wind Speed Gust Speed Precip Events Conditions
12:15 AM 75.6 °F - 69.8 °F 82% 29.92 in 10.0 mi SSW 9.2 mph - N/A   Clear
12:35 AM 75.4 °F - 69.8 °F 83% 29.92 in 10.0 mi SSW 6.9 mph - N/A   Clear
12:55 AM 75.2 °F - 69.8 °F 83% 29.93 in 10.0 mi SSW 6.9 mph - N/A   Clear
1:15 AM 74.7 °F - 69.4 °F 84% 29.92 in 10.0 mi SSW 9.2 mph - N/A   Clear
1:35 AM 73.9 °F - 69.4 °F 86% 29.92 in 10.0 mi SSW 6.9 mph - N/A   Clear
1:55 AM 73.4 °F - 69.4 °F 87% 29.91 in 10.0 mi SSW 6.9 mph - N/A   Clear
2:15 AM 72.7 °F - 69.4 °F 90% 29.91 in 10.0 mi SW 5.8 mph - N/A   Clear
2:35 AM 72.7 °F - 69.4 °F 90% 29.92 in 10.0 mi SW 6.9 mph - N/A   Clear
3:15 AM 72.1 °F - 69.6 °F 92% 29.92 in 10.0 mi SSW 5.8 mph - N/A   Clear
3:35 AM 71.6 °F - 69.4 °F 93% 29.92 in 7.0 mi SSW 5.8 mph - N/A   Clear
3:55 AM 71.6 °F - 69.6 °F 93% 29.93 in 7.0 mi South 3.5 mph - N/A   Clear
4:35 AM 70.7 °F - 69.3 °F 95% 29.94 in 7.0 mi SSE 3.5 mph - N/A   Clear
4:55 AM 70.5 °F - 69.3 °F 96% 29.95 in 7.0 mi SSE 4.6 mph - N/A   Clear
5:15 AM 70.3 °F - 69.3 °F 96% 29.95 in 7.0 mi South 5.8 mph - N/A   Clear
5:35 AM 70.9 °F - 69.4 °F 95% 29.95 in 5.0 mi South 6.9 mph - N/A   Clear
5:55 AM 70.9 °F - 69.4 °F 95% 29.96 in 5.0 mi South 6.9 mph - N/A   Clear
6:15 AM 71.1 °F - 69.8 °F 96% 29.96 in 5.0 mi South 8.1 mph - N/A   Clear
6:35 AM 71.6 °F - 69.8 °F 94% 29.96 in 5.0 mi South 6.9 mph - N/A   Clear
6:55 AM 72.1 °F - 70.0 °F 93% 29.96 in 5.0 mi South 5.8 mph - N/A   Scattered Clouds
7:15 AM 72.7 °F - 70.3 °F 92% 29.97 in 7.0 mi South 6.9 mph - N/A   Mostly Cloudy
7:35 AM 73.8 °F - 70.9 °F 91% 29.97 in 7.0 mi SSW 5.8 mph - N/A   Overcast
7:55 AM 75.7 °F - 71.1 °F 85% 29.98 in 7.0 mi SSW 6.9 mph - N/A   Scattered Clouds
8:15 AM 76.6 °F - 71.4 °F 84% 29.98 in 10.0 mi South 9.2 mph - N/A   Mostly Cloudy
8:35 AM 76.5 °F - 71.4 °F 84% 29.98 in 10.0 mi SSW 6.9 mph - N/A   Overcast
8:55 AM 76.6 °F - 71.4 °F 84% 29.98 in 10.0 mi South 6.9 mph - N/A   Overcast
9:15 AM 77.4 °F - 71.8 °F 83% 29.99 in 10.0 mi SSW 5.8 mph - N/A   Overcast
9:35 AM 77.4 °F - 71.6 °F 82% 29.99 in 10.0 mi SSW 9.2 mph - N/A   Overcast
9:55 AM 78.1 °F - 72.1 °F 82% 30.00 in 10.0 mi SW 6.9 mph - N/A   Overcast
10:35 AM 79.9 °F - 72.9 °F 79% 30.00 in 10.0 mi WSW 10.4 mph 16.1 mph N/A   Overcast
10:55 AM 80.2 °F 84.3 °F 72.3 °F 77% 30.00 in 10.0 mi SW 10.4 mph - N/A   Overcast
11:15 AM 81.0 °F 85.2 °F 71.8 °F 74% 29.99 in 10.0 mi SSW 10.4 mph - N/A   Overcast
11:35 AM 82.6 °F 88.1 °F 72.7 °F 72% 29.99 in 10.0 mi SSW 11.5 mph 16.1 mph N/A   Overcast
11:55 AM 82.9 °F 88.3 °F 72.1 °F 70% 29.98 in 10.0 mi SSW 12.7 mph 17.3 mph N/A   Mostly Cloudy
12:15 PM 83.7 °F 89.4 °F 72.3 °F 69% 29.97 in 10.0 mi SSW 11.5 mph - N/A   Mostly Cloudy
12:35 PM 84.4 °F 90.3 °F 72.5 °F 67% 29.96 in 10.0 mi SSW 10.4 mph 17.3 mph N/A   Mostly Cloudy
12:55 PM 84.4 °F 90.0 °F 71.8 °F 66% 29.96 in 10.0 mi SSW 13.8 mph - N/A   Scattered Clouds
1:15 PM 85.1 °F 91.1 °F 72.0 °F 65% 29.96 in 10.0 mi SSW 10.4 mph 19.6 mph N/A   Mostly Cloudy
1:55 PM 84.9 °F 90.4 °F 71.6 °F 64% 29.95 in 10.0 mi South 10.4 mph 20.7 mph N/A   Mostly Cloudy
2:15 PM 85.8 °F 91.5 °F 71.4 °F 62% 29.95 in 10.0 mi SSW 8.1 mph - N/A   Scattered Clouds
2:35 PM 85.5 °F 90.8 °F 71.2 °F 62% 29.94 in 10.0 mi SW 10.4 mph - N/A   Scattered Clouds
2:55 PM 86.5 °F 92.1 °F 71.1 °F 60% 29.94 in 10.0 mi SW 10.4 mph 18.4 mph N/A   Scattered Clouds
3:15 PM 86.7 °F 92.1 °F 70.7 °F 59% 29.93 in 10.0 mi SSW 9.2 mph 18.4 mph N/A   Scattered Clouds
3:35 PM 85.5 °F 90.8 °F 70.9 °F 62% 29.93 in 10.0 mi SSW 8.1 mph - N/A   Mostly Cloudy
3:55 PM 85.6 °F 90.4 °F 70.3 °F 60% 29.92 in 10.0 mi SSW 12.7 mph 16.1 mph N/A   Mostly Cloudy
4:15 PM 86.5 °F 91.8 °F 70.9 °F 59% 29.92 in 10.0 mi South 10.4 mph - N/A   Scattered Clouds
4:35 PM 86.9 °F 92.5 °F 71.1 °F 59% 29.91 in 10.0 mi South 11.5 mph 16.1 mph N/A   Scattered Clouds
4:55 PM 86.9 °F 91.7 °F 70.0 °F 57% 29.91 in 10.0 mi South 11.5 mph 17.3 mph N/A   Scattered Clouds
5:15 PM 86.9 °F 91.7 °F 69.8 °F 57% 29.90 in 10.0 mi SSW 9.2 mph - N/A   Scattered Clouds
5:35 PM 86.4 °F 90.7 °F 69.4 °F 57% 29.90 in 10.0 mi South 10.4 mph - N/A   Clear
5:55 PM 86.0 °F 90.4 °F 69.8 °F 58% 29.89 in 10.0 mi South 11.5 mph - N/A   Clear
6:15 PM 85.6 °F 89.7 °F 69.4 °F 58% 29.88 in 10.0 mi South 8.1 mph 16.1 mph N/A   Clear
6:35 PM 85.1 °F 89.1 °F 69.4 °F 59% 29.88 in 10.0 mi South 8.1 mph - N/A   Clear
6:55 PM 84.2 °F 89.0 °F 70.9 °F 64% 29.87 in 10.0 mi South 9.2 mph - N/A   Clear
7:15 PM 83.1 °F 88.1 °F 71.6 °F 68% 29.87 in 10.0 mi South 8.1 mph - N/A   Clear
7:35 PM 82.2 °F 86.9 °F 71.6 °F 70% 29.87 in 10.0 mi South 9.2 mph - N/A   Clear
7:55 PM 81.3 °F 85.2 °F 70.9 °F 70% 29.87 in 10.0 mi South 11.5 mph 16.1 mph N/A   Clear
8:15 PM 80.6 °F 84.2 °F 70.7 °F 72% 29.87 in 10.0 mi South 9.2 mph - N/A   Clear
8:35 PM 80.1 °F 83.4 °F 70.5 °F 73% 29.88 in 10.0 mi South 9.2 mph 16.1 mph N/A   Clear
9:15 PM 79.2 °F - 70.2 °F 74% 29.89 in 10.0 mi South 10.4 mph - N/A   Clear
9:35 PM 79.0 °F - 70.0 °F 74% 29.89 in 10.0 mi South 10.4 mph 19.6 mph N/A   Clear
9:55 PM 78.8 °F - 69.8 °F 74% 29.89 in 10.0 mi South 11.5 mph 17.3 mph N/A   Clear
10:15 PM 78.4 °F - 69.8 °F 75% 29.88 in 10.0 mi South 9.2 mph 16.1 mph N/A   Clear
10:35 PM 78.3 °F - 69.4 °F 74% 29.88 in 10.0 mi South 9.2 mph 16.1 mph N/A   Clear
10:55 PM 77.9 °F - 69.4 °F 75% 29.89 in 10.0 mi South 8.1 mph - N/A   Clear
11:15 PM 77.9 °F - 69.4 °F 75% 29.90 in 10.0 mi South 6.9 mph - N/A   Clear
11:35 PM 77.9 °F - 69.4 °F 75% 29.91 in 10.0 mi SSW 6.9 mph - N/A   Clear
11:55 PM 77.9 °F - 69.4 °F 75% 29.92 in 10.0 mi SSW 10.4 mph - N/A   Clear